HVN1340 VVTS-VVCR

Flight info

Callsign HVN1340
Flight time 0h 37m
Altitude 27000
Route BIXEX5C BIXEX W15 BANKE BANKE1A
Aircraft A321/M-SDE3FGHIRWY/LB1

Departure

Time 2026-04-27 08:06
Airport Tan Son Nhat International Airport (VVTS)

Arrival

Time 2026-04-27 08:44
Airport Cam Ranh International Airport / Cam Ranh Air Base (VVCR)
Time Latitude Longitude Altitude Speed Heading
2026-04-27 07:39 10.81327 106.65485 38 ft 0 kts 158°
2026-04-27 07:56 10.81337 106.65481 37 ft 4 kts 160°
2026-04-27 07:56 10.81360 106.65473 36 ft 3 kts 158°
2026-04-27 07:57 10.81377 106.65460 36 ft 4 kts 97°
2026-04-27 07:57 10.81373 106.65434 35 ft 4 kts 69°
2026-04-27 07:57 10.81368 106.65422 35 ft 0 kts 69°
2026-04-27 07:59 10.81369 106.65423 35 ft 0 kts 69°
2026-04-27 08:00 10.81377 106.65444 36 ft 5 kts 69°
2026-04-27 08:00 10.81391 106.65482 35 ft 7 kts 69°
2026-04-27 08:00 10.81410 106.65533 37 ft 9 kts 69°
2026-04-27 08:00 10.81433 106.65594 37 ft 10 kts 69°
2026-04-27 08:01 10.81461 106.65669 35 ft 12 kts 69°
2026-04-27 08:01 10.81493 106.65753 37 ft 14 kts 69°
2026-04-27 08:01 10.81571 106.65796 37 ft 14 kts
2026-04-27 08:01 10.81679 106.65802 33 ft 18 kts 355°
2026-04-27 08:02 10.81770 106.65832 35 ft 15 kts 65°
2026-04-27 08:02 10.81807 106.65930 37 ft 15 kts 69°
2026-04-27 08:02 10.81846 106.66032 37 ft 16 kts 69°
2026-04-27 08:02 10.81889 106.66146 36 ft 18 kts 69°
2026-04-27 08:03 10.81935 106.66268 37 ft 18 kts 69°
2026-04-27 08:03 10.81981 106.66392 36 ft 20 kts 69°
2026-04-27 08:03 10.82035 106.66533 34 ft 22 kts 69°
2026-04-27 08:03 10.82091 106.66685 33 ft 23 kts 69°
2026-04-27 08:04 10.82152 106.66845 32 ft 25 kts 69°
2026-04-27 08:04 10.82211 106.66992 35 ft 16 kts 54°
2026-04-27 08:04 10.82305 106.66987 35 ft 16 kts 331°
2026-04-27 08:04 10.82355 106.66932 35 ft 7 kts 328°
2026-04-27 08:05 10.82355 106.66899 35 ft 0 kts 242°
2026-04-27 08:05 10.82348 106.66886 32 ft 14 kts 245°
2026-04-27 08:05 10.82209 106.66525 34 ft 94 kts 249°
2026-04-27 08:05 10.81891 106.65687 38 ft 157 kts 249°
2026-04-27 08:06 10.81447 106.64514 295 ft 184 kts 245°
2026-04-27 08:06 10.80990 106.63307 1068 ft 183 kts 246°
2026-04-27 08:06 10.80527 106.62088 1757 ft 189 kts 247°
2026-04-27 08:06 10.80029 106.60773 1990 ft 210 kts 248°
2026-04-27 08:07 10.79486 106.59343 2272 ft 226 kts 247°
2026-04-27 08:07 10.78917 106.57836 2747 ft 230 kts 246°
2026-04-27 08:07 10.78130 106.56433 3304 ft 228 kts 220°
2026-04-27 08:07 10.76718 106.55819 3854 ft 223 kts 178°
2026-04-27 08:08 10.75252 106.56267 4389 ft 223 kts 147°
2026-04-27 08:08 10.73935 106.57104 4968 ft 224 kts 147°
2026-04-27 08:08 10.72584 106.57930 5531 ft 227 kts 148°
2026-04-27 08:08 10.71227 106.58743 6091 ft 230 kts 148°
2026-04-27 08:09 10.69839 106.59570 6630 ft 232 kts 147°
2026-04-27 08:09 10.68436 106.60402 7163 ft 234 kts 147°
2026-04-27 08:09 10.67021 106.61240 7688 ft 237 kts 148°
2026-04-27 08:09 10.65616 106.62131 8167 ft 239 kts 138°
2026-04-27 08:10 10.64636 106.63480 8670 ft 237 kts 109°
2026-04-27 08:10 10.64391 106.65136 8938 ft 251 kts 81°
2026-04-27 08:10 10.64925 106.66904 9103 ft 273 kts 69°
2026-04-27 08:10 10.65634 106.68758 9550 ft 284 kts 69°
2026-04-27 08:11 10.66362 106.70650 10041 ft 293 kts 68°
2026-04-27 08:11 10.67132 106.72654 10162 ft 315 kts 69°
2026-04-27 08:11 10.67951 106.74800 10283 ft 335 kts 69°
2026-04-27 08:11 10.68814 106.77075 10418 ft 352 kts 69°
2026-04-27 08:12 10.69708 106.79437 10742 ft 361 kts 69°
2026-04-27 08:12 10.70603 106.81812 11197 ft 366 kts 69°
2026-04-27 08:12 10.71325 106.84301 11672 ft 370 kts 79°
2026-04-27 08:12 10.71552 106.86921 12129 ft 374 kts 90°
2026-04-27 08:13 10.71540 106.89587 12600 ft 378 kts 90°
2026-04-27 08:13 10.71534 106.92274 13064 ft 382 kts 90°
2026-04-27 08:13 10.71532 106.94956 13505 ft 386 kts 90°
2026-04-27 08:13 10.71534 106.97733 13914 ft 389 kts 90°
2026-04-27 08:14 10.71537 107.00464 14318 ft 392 kts 90°
2026-04-27 08:14 10.71539 107.03247 14734 ft 395 kts 90°
2026-04-27 08:14 10.71541 107.06050 15156 ft 397 kts 90°
2026-04-27 08:14 10.71543 107.08876 15610 ft 399 kts 90°
2026-04-27 08:15 10.71544 107.10758 15887 ft 401 kts 90°
2026-04-27 08:15 10.71543 107.14534 16439 ft 405 kts 90°
2026-04-27 08:15 10.71540 107.17410 16847 ft 407 kts 90°
2026-04-27 08:15 10.71539 107.19318 17125 ft 408 kts 90°
2026-04-27 08:16 10.71538 107.22217 17527 ft 411 kts 90°
2026-04-27 08:16 10.71536 107.25140 17919 ft 413 kts 90°
2026-04-27 08:16 10.71701 107.28074 18255 ft 416 kts 81°
2026-04-27 08:16 10.72422 107.30907 18599 ft 418 kts 69°
2026-04-27 08:17 10.73706 107.33573 18931 ft 420 kts 58°
2026-04-27 08:17 10.75501 107.35934 19261 ft 422 kts 46°
2026-04-27 08:17 10.77633 107.37942 19587 ft 424 kts 41°
2026-04-27 08:17 10.79853 107.39963 19920 ft 425 kts 42°
2026-04-27 08:18 10.82063 107.41981 20245 ft 428 kts 41°
2026-04-27 08:18 10.84266 107.43996 20504 ft 432 kts 41°
2026-04-27 08:18 10.86507 107.46046 20798 ft 434 kts 41°
2026-04-27 08:18 10.88764 107.48117 21134 ft 436 kts 42°
2026-04-27 08:19 10.91021 107.50186 21447 ft 438 kts 41°
2026-04-27 08:19 10.93296 107.52267 21767 ft 440 kts 41°
2026-04-27 08:19 10.95578 107.54356 22074 ft 442 kts 41°
2026-04-27 08:19 10.97874 107.56456 22390 ft 444 kts 41°
2026-04-27 08:20 11.00148 107.58536 22685 ft 446 kts 41°
2026-04-27 08:20 11.02473 107.60668 22989 ft 448 kts 42°
2026-04-27 08:20 11.04795 107.62799 23268 ft 450 kts 41°
2026-04-27 08:20 11.07128 107.64936 23533 ft 452 kts 41°
2026-04-27 08:21 11.09471 107.67082 23780 ft 453 kts 41°
2026-04-27 08:21 11.11803 107.69218 24023 ft 455 kts 41°
2026-04-27 08:21 11.14160 107.71377 24278 ft 456 kts 41°
2026-04-27 08:21 11.16538 107.73555 24530 ft 458 kts 41°
2026-04-27 08:22 11.18879 107.75704 24784 ft 459 kts 41°
2026-04-27 08:22 11.21254 107.77888 25074 ft 460 kts 41°
2026-04-27 08:22 11.23635 107.80076 25330 ft 461 kts 41°
2026-04-27 08:22 11.26034 107.82280 25582 ft 463 kts 41°
2026-04-27 08:23 11.28392 107.84446 25830 ft 464 kts 41°
2026-04-27 08:23 11.30801 107.86660 26080 ft 465 kts 41°
2026-04-27 08:23 11.33208 107.88874 26329 ft 467 kts 41°
2026-04-27 08:23 11.35622 107.91094 26591 ft 468 kts 41°
2026-04-27 08:24 11.38053 107.93326 26804 ft 470 kts 41°
2026-04-27 08:24 11.40478 107.95550 26864 ft 467 kts 41°
2026-04-27 08:24 11.42857 107.97732 26868 ft 464 kts 41°
2026-04-27 08:24 11.45252 107.99934 26867 ft 464 kts 41°
2026-04-27 08:25 11.47649 108.02139 26880 ft 464 kts 41°
2026-04-27 08:25 11.50051 108.04353 26876 ft 465 kts 41°
2026-04-27 08:25 11.52465 108.06579 26877 ft 466 kts 41°
2026-04-27 08:25 11.54872 108.08798 26876 ft 466 kts 41°
2026-04-27 08:26 11.57275 108.11013 26876 ft 466 kts 41°
2026-04-27 08:26 11.59652 108.13265 26875 ft 466 kts 46°
2026-04-27 08:26 11.61699 108.15774 26882 ft 467 kts 53°
2026-04-27 08:26 11.63579 108.18493 26884 ft 467 kts 54°
2026-04-27 08:27 11.65461 108.21203 26886 ft 467 kts 53°
2026-04-27 08:27 11.67342 108.23906 26885 ft 467 kts 53°
2026-04-27 08:27 11.69232 108.26618 26886 ft 468 kts 54°
2026-04-27 08:27 11.71121 108.29326 26868 ft 469 kts 53°
2026-04-27 08:28 11.72992 108.32008 26872 ft 470 kts 53°
2026-04-27 08:28 11.74754 108.34828 26877 ft 471 kts 62°
2026-04-27 08:28 11.76072 108.37904 26877 ft 473 kts 70°
2026-04-27 08:28 11.76998 108.41133 26870 ft 474 kts 74°
2026-04-27 08:29 11.77890 108.44377 26752 ft 474 kts 74°
2026-04-27 08:29 11.78778 108.47589 25554 ft 480 kts 73°
2026-04-27 08:29 11.79711 108.50935 23926 ft 496 kts 74°
2026-04-27 08:29 11.80667 108.54342 22783 ft 498 kts 73°
2026-04-27 08:30 11.81615 108.57713 21919 ft 491 kts 74°
2026-04-27 08:30 11.82549 108.61050 21098 ft 484 kts 74°
2026-04-27 08:30 11.83464 108.64339 20267 ft 478 kts 74°
2026-04-27 08:30 11.84360 108.67545 19511 ft 472 kts 74°
2026-04-27 08:31 11.85264 108.70758 18717 ft 466 kts 74°
2026-04-27 08:31 11.86158 108.73923 17919 ft 460 kts 73°
2026-04-27 08:31 11.87044 108.77038 17027 ft 454 kts 73°
2026-04-27 08:31 11.87913 108.80088 16209 ft 447 kts 73°
2026-04-27 08:32 11.88781 108.83156 15365 ft 442 kts 73°
2026-04-27 08:32 11.89611 108.86124 14561 ft 437 kts 75°
2026-04-27 08:32 11.90188 108.89158 13784 ft 432 kts 80°
2026-04-27 08:32 11.90701 108.92161 13258 ft 420 kts 79°
2026-04-27 08:33 11.91191 108.95016 13129 ft 398 kts 80°
2026-04-27 08:33 11.91660 108.97737 13001 ft 378 kts 80°
2026-04-27 08:33 11.92105 109.00319 12859 ft 360 kts 80°
2026-04-27 08:33 11.92529 109.02781 12732 ft 343 kts 80°
2026-04-27 08:34 11.92926 109.05100 12602 ft 329 kts 79°
2026-04-27 08:34 11.93315 109.07368 12320 ft 321 kts 79°
2026-04-27 08:34 11.93698 109.09605 11928 ft 318 kts 79°
2026-04-27 08:34 11.94081 109.11827 11490 ft 316 kts 79°
2026-04-27 08:35 11.94461 109.14038 11105 ft 314 kts 80°
2026-04-27 08:35 11.94834 109.16224 10702 ft 312 kts 80°
2026-04-27 08:35 11.95201 109.18374 10304 ft 310 kts 80°
2026-04-27 08:35 11.95504 109.20549 9910 ft 308 kts 88°
2026-04-27 08:36 11.95303 109.22717 9504 ft 305 kts 104°
2026-04-27 08:36 11.94626 109.24763 9071 ft 304 kts 110°
2026-04-27 08:36 11.93901 109.26783 8664 ft 301 kts 110°
2026-04-27 08:36 11.93185 109.28790 8267 ft 299 kts 110°
2026-04-27 08:37 11.92313 109.30692 7864 ft 295 kts 128°
2026-04-27 08:37 11.90786 109.31994 7496 ft 290 kts 156°
2026-04-27 08:37 11.88844 109.32411 7097 ft 285 kts 184°
2026-04-27 08:37 11.86939 109.31953 6461 ft 281 kts 199°
2026-04-27 08:38 11.85100 109.31279 5920 ft 278 kts 200°
2026-04-27 08:38 11.83281 109.30600 5626 ft 275 kts 200°
2026-04-27 08:38 11.81564 109.29790 5336 ft 270 kts 217°
2026-04-27 08:38 11.80372 109.28382 5060 ft 265 kts 244°
2026-04-27 08:39 11.79910 109.26573 4556 ft 269 kts 270°
2026-04-27 08:39 11.80347 109.24710 4094 ft 270 kts 297°
2026-04-27 08:39 11.81182 109.23007 3823 ft 265 kts 297°
2026-04-27 08:39 11.81991 109.21330 3540 ft 261 kts 298°
2026-04-27 08:40 11.83042 109.19848 3163 ft 255 kts 317°
2026-04-27 08:40 11.84404 109.18834 3006 ft 234 kts 334°
2026-04-27 08:40 11.85902 109.18279 2757 ft 224 kts 351°
2026-04-27 08:40 11.87419 109.18159 2504 ft 213 kts
2026-04-27 08:41 11.88822 109.18421 2217 ft 202 kts 20°
2026-04-27 08:41 11.90130 109.18872 1927 ft 194 kts 20°
2026-04-27 08:41 11.91367 109.19301 1661 ft 179 kts 22°
2026-04-27 08:41 11.92493 109.19690 1382 ft 162 kts 21°
2026-04-27 08:42 11.93529 109.20049 1142 ft 153 kts 20°
2026-04-27 08:42 11.94501 109.20386 924 ft 147 kts 22°
2026-04-27 08:42 11.95471 109.20722 710 ft 145 kts 22°
2026-04-27 08:42 11.96417 109.21049 504 ft 142 kts 22°
2026-04-27 08:43 11.97360 109.21377 259 ft 142 kts 22°
2026-04-27 08:43 11.98302 109.21704 64 ft 142 kts 22°
2026-04-27 08:43 11.99138 109.22001 50 ft 111 kts 17°
2026-04-27 08:43 11.99707 109.22193 52 ft 61 kts 19°
2026-04-27 08:44 11.99907 109.22245 51 ft 13 kts 333°
2026-04-27 08:44 11.99932 109.22183 53 ft 9 kts 287°
2026-04-27 08:44 11.99954 109.22116 53 ft 11 kts 289°
2026-04-27 08:44 11.99979 109.22040 54 ft 12 kts 289°
2026-04-27 08:45 12.00008 109.21956 54 ft 13 kts 289°
2026-04-27 08:45 12.00040 109.21860 53 ft 15 kts 289°
2026-04-27 08:45 12.00077 109.21748 53 ft 18 kts 288°
2026-04-27 08:45 12.00123 109.21645 51 ft 13 kts 328°
2026-04-27 08:46 12.00209 109.21660 53 ft 14 kts 18°
2026-04-27 08:46 12.00305 109.21693 53 ft 15 kts 18°
2026-04-27 08:46 12.00411 109.21730 53 ft 17 kts 18°
2026-04-27 08:46 12.00516 109.21766 53 ft 15 kts 18°
2026-04-27 08:47 12.00577 109.21714 53 ft 13 kts 289°
2026-04-27 08:47 12.00602 109.21642 53 ft 6 kts 289°
2026-04-27 08:47 12.00604 109.21635 53 ft 2 kts 288°
2026-04-27 08:47 12.00604 109.21634 53 ft 0 kts 288°